Regional Weather Roundup
Issued by NWS Lake Charles, LA

Home | Current Version | Previous Version | Text Only | Print | Product List | Glossary On
Versions: 1 2 3 4 5 6 7 8 9 10 11 12 13 14 15 16 17 18 19 20 21 22 23 24 25 26 27 28 29 30 31 32 33 34 35 36 37 38 39 40 41 42 43 44 45 46 47 48 49 50
000
ASUS44 KLCH 290610
RWRLCH
RWRLCH
REGIONAL WEATHER ROUNDUP
NATIONAL WEATHER SERVICE LAKE CHARLES LA
1200 AM CST MON DEC 29 2014

Note: "fair" indicates few or no clouds below 12,000 feet with no
significant weather and/or obstructions to visibility.


ACROSS SOUTHEAST TEXAS

CITY           SKY/WX    TMP DP  RH WIND       PRES   REMARKS
BEAUMONT       CLOUDY    48  46  93 N6        30.13F
BEAUMONT CITY    N/A     43  43 100 NW5       30.14F FOG
ORANGE         CLOUDY    47  46  98 CALM      30.15S
JASPER         CLOUDY    42  41  97 CALM      30.15F
$$

ACROSS CENTRAL LOUISIANA

CITY           SKY/WX    TMP DP  RH WIND       PRES   REMARKS
LEESVILLE      CLOUDY    45  45 100 NE6       30.12F
FULLERTON      CLOUDY    48  44  86 CALM      30.11S
ALEXANDRIA INT CLOUDY    45  43  93 NE3       30.13F
ESLER FIELD    CLOUDY    44  42  93 CALM      30.14S
DERIDDER       CLOUDY    46  45  95 CALM      30.15S
OAKDALE        CLOUDY    47  45  95 N3        30.12F FOG
OPELOUSAS      CLOUDY    46  46  98 N6        30.12F
$$

ACROSS SOUTHWEST AND SOUTH CENTRAL LOUISIANA

CITY           SKY/WX    TMP DP  RH WIND       PRES   REMARKS
SULPHUR        CLOUDY    49  49  99 CALM      30.13F FOG
LAKE CHARLES   CLOUDY    49  47  93 NE8       30.11F FOG
CHENNAULT INT  CLOUDY    47  46  96 N5        30.12F
CAMERON PHI    CLOUDY    50  48  93 NE7       30.14F
DEQUINCY       CLOUDY    46  46 100 CALM      30.13S
JENNINGS       CLOUDY    47  47  97 NE7       30.11F
LAFAYETTE      CLOUDY    49  50 100 N10       30.11F
NEW IBERIA     CLOUDY    51  49  92 N9        30.10S
ABBEVILLE      CLOUDY    48  47  97 N9        30.10F
PATTERSON      CLOUDY    55  54  94 E6        30.05F
SALT POINT       N/A     65  55  70 VRB3      30.04F
$$

SELECTED SITES ACROSS THE REGION

CITY           SKY/WX    TMP DP  RH WIND       PRES   REMARKS
HOUSTON BUSH   CLOUDY    42  39  89 NW5       30.16F
HOUSTON HOBBY  MOCLDY    43  40  89 NW5       30.15F
GALVESTON      LGT RAIN  44  44 100 NW8       30.16F
COLLEGE STAT   CLEAR     34  32  92 CALM      30.17S
CONROE         CLOUDY    40  38  93 CALM      30.17S
HUNTSVILLE     CLOUDY    39  38  96 CALM      30.15F FOG
LUFKIN         CLOUDY    43  39  86 CALM      30.15F
SHREVEPORT     CLOUDY    43  43 100 NE3       30.14F FOG
MONROE         CLOUDY    43  32  65 N5        30.17F
NATCHEZ MS     CLOUDY    45  41  87 N7        30.14F
BATON ROUGE    CLOUDY    51  49  92 NW7       30.09R
N.O. INTL ARPT CLOUDY    57  54  89 N9        30.08F
SLIDELL        CLOUDY    56  54  93 N10       30.06F
$$

MARINE REPORTS

STATION/POSITION TIME  TEMP    WIND        PRES    VSBY  WAVE
                       AIR SEA DIR/SP/G                  HT/PER
                 (UTC) (F)     (DEG/KT/KT) (MB)    (MI)  (FT/S)
BUOY 30 S HIGH I 0600   49 61  350/ 10/ 14 1020.0F         2/ 3
SEA RIM ST PARK  0600   46     350/  7/  8 1020.7F
PORT ARTHUR      0600      58  360/  6/  7 1020.5F
SABINE PASS N    0600   49 58  360/  9/ 11 1020.2F
TEXAS POINT      NOT AVBL
CALCASIEU PASS   0600   49 59   40/  7/  9   N/A
LK CHARLES BEACH 0600   48 58              1020.0F
MARSH ISLAND     NOT AVBL
FRESH WATER LOCK 0600   51 60  340/ 10/ 14 1018.5F
AMERADA PASS     0600   56 53   60/  5/  8 1017.5F
$$



USA.gov is the U.S. government's official web portal to all federal, state and local government web resources and services.